Home > Time Zones > World Clock > Weather > France > Caen > Past weeks

Flag for France Weather past 2 weeks in Caen, France

Now
50 °F

Overcast.


Feels Like: 48 °F
Forecast: 50 / 60 °F
Wind: 6 mph from Northwest

Location: Caen Airport


UV Index: 0 (Low)

Visibility: 4 mi


Pressure: 30.09 "Hg

Humidity: 94%

Dew point: 48 °F

Location of CaenLocation

Historic Weather in Caen

°F

Caen temperature yesterday

Maximum temperature yesterday: 59 °F (at 12:30 PM)
Minimum temperature yesterday: 41 °F (at 6:00 AM)
Average temperature yesterday: 51 °F

Past Weeks' High & Low Weather Summary

 TemperatureHumidityPressure
High68 °F (Apr 17, 4:00 PM)100% (Apr 9, 7:00 AM)30.36 "Hg (Apr 9, 7:00 AM)
Low34 °F (Apr 17, 6:00 AM)37% (Apr 17, 1:00 PM)29.56 "Hg (Apr 20, 2:30 PM)
Average50 °F78%30.08 "Hg
* Reported Apr 9 5:30 AM — Apr 24 5:30 AM, Caen, Weather by CustomWeather, © 2014

Note: Actual official high and low records may vary slightly from our data, if they occured in-between our weather recording intervals... More about our weather records

Advertising

Historic Weather Conditions — Data for Previous 24 hours

 ConditionsComfort  
Time TempWeatherWind HumidityBarometerVisibility
5:30 AM
Apr 24
50 °FOvercast.5 mph94%30.09 "Hg6 mi
5:00 AM50 °FMostly cloudy.5 mph100%30.12 "Hg5 mi
4:30 AM50 °FFog.3 mph100%30.12 "Hg3 mi
4:00 AM50 °FFog.No wind94%30.12 "Hg0 mi
3:30 AM50 °FFog.No wind100%30.12 "Hg1 mi
3:00 AM50 °FFog.No wind94%30.12 "Hg1 mi
2:30 AM50 °FFog.No wind94%30.12 "Hg0 mi
2:00 AM52 °FFog.No wind94%30.12 "Hg1 mi
1:30 AM52 °FFog.5 mph94%30.12 "Hg1 mi
1:00 AM50 °FMostly cloudy.2 mph94%30.12 "HgN/A
12:30 AM50 °FMostly cloudy.No wind94%30.12 "HgN/A
12:00 AM52 °FDrizzle. Mostly cloudy.2 mph94%30.12 "Hg4 mi
11:30 PM
Apr 23
52 °FLight rain. Fog.1 mph94%30.12 "Hg3 mi
11:00 PM52 °FFog.3 mph94%30.12 "Hg3 mi
10:30 PM52 °FClear.No wind94%30.12 "Hg6 mi
10:00 PM52 °FClear.2 mph94%30.09 "Hg5 mi
9:30 PM52 °FDrizzle. Overcast.3 mph94%30.09 "HgN/A
9:00 PM52 °FLight rain. Clear.5 mph94%30.09 "HgN/A
8:30 PM52 °FClear.5 mph94%30.09 "HgN/A
8:00 PM52 °FClear.3 mph94%30.09 "HgN/A
7:30 PM52 °FLight rain. Clear.5 mph94%30.09 "HgN/A
7:00 PM52 °FLight rain. Clear.6 mph94%30.09 "HgN/A
6:30 PM54 °FLight rain. Low clouds.7 mph88%30.09 "HgN/A
6:00 PM52 °FLight rain. More clouds than sun.6 mph88%30.09 "HgN/A
5:30 PM52 °FLight rain. Partly sunny.7 mph88%30.09 "Hg6 mi
5:00 PM54 °FLight rain. Mostly cloudy.5 mph88%30.09 "Hg6 mi
4:30 PM54 °FLight rain. Mostly cloudy.7 mph82%30.09 "HgN/A
4:00 PM54 °FLight rain. Clear.9 mph82%30.09 "HgN/A
3:30 PM54 °FLight rain. Clear.9 mph77%30.09 "HgN/A
3:00 PM55 °FLight rain. Clear.8 mph77%30.09 "HgN/A
2:30 PM55 °FPartly sunny.12 mph77%30.07 "HgN/A
2:00 PM57 °FClear.12 mph72%30.07 "HgN/A
1:30 PM57 °FClear.10 mph72%30.07 "HgN/A
1:00 PM57 °FClear.12 mph67%30.07 "HgN/A
12:30 PM59 °FClear.12 mph72%30.07 "HgN/A
12:00 PM57 °FClear.12 mph72%30.07 "HgN/A
11:30 AM55 °FClear.9 mph77%30.07 "HgN/A
11:00 AM55 °FClear.8 mph77%30.07 "HgN/A
10:30 AM54 °FClear.10 mph82%30.07 "HgN/A
10:00 AM52 °FClear.12 mph88%30.04 "HgN/A
9:30 AM52 °FClear.9 mph88%30.04 "HgN/A
9:00 AM48 °FClear.6 mph94%30.04 "HgN/A
8:30 AM46 °FClear.2 mph93%30.04 "Hg6 mi
8:00 AM45 °FClear.6 mph93%30.04 "Hg5 mi
7:30 AM45 °FClear.7 mph93%30.04 "Hg4 mi
7:00 AM43 °FFog.7 mph93%30.01 "Hg3 mi
6:30 AM41 °FFog.6 mph100%30.01 "Hg2 mi
6:00 AM41 °FClear.7 mph93%30.01 "Hg4 mi
Weather by CustomWeather, © 2014

See weather overview